Regional Weather Roundup
Issued by NWS

Home | Current Version | Previous Version | Text Only | Print | Product List | Glossary On
Versions: 1 2 3 4 5 6 7 8 9 10 11 12 13 14 15 16 17 18 19 20 21 22 23 24 25 26 27 28 29 30 31 32 33 34 35 36 37 38 39 40 41 42 43 44 45 46 47 48 49 50
000
ASUS43 KTOP 210608
RWRKS

WEATHER ROUNDUP FOR KANSAS
NATIONAL WEATHER SERVICE GOODLAND KS
100 AM CDT TUE OCT 21 2014

NOTE:  "FAIR" INDICATES FEW OR NO CLOUDS BELOW 12,000 FEET WITH NO
SIGNIFICANT WEATHER AND/OR OBSTRUCTIONS TO VISIBILITY.

KSZ001>006-013>018-027>032-041>047-210700-
NORTHWEST KANSAS

CITY           SKY/WX    TMP DP  RH WIND       PRES   REMARKS
GOODLAND       CLEAR     52  40  63 S12       30.11S
6HR MIN TEMP:  49; 6HR MAX TEMP:  63;

HAYS           CLEAR     52  41  66 W3        30.08S
HILL CITY      CLEAR     49  41  74 W5        30.08S
6HR MIN TEMP:  46; 6HR MAX TEMP:  68;

RUSSELL        CLEAR     52  45  77 S10       30.06F
6HR MIN TEMP:  51; 6HR MAX TEMP:  66;

$$

KSZ061>065-074>080-084>089-210700-
SOUTHWEST KANSAS

CITY           SKY/WX    TMP DP  RH WIND       PRES   REMARKS
DODGE CITY     CLEAR     54  45  71 S9        30.09F
6HR MIN TEMP:  53; 6HR MAX TEMP:  65;

ELKHART          N/A     52  48  86 SE8         N/A
GARDEN CITY    CLEAR     50  42  74 SE6       30.09F
6HR MIN TEMP:  50; 6HR MAX TEMP:  66;

GREAT BEND     CLEAR     46  39  76 CALM      30.08F
LIBERAL        CLEAR     57  52  82 E6        30.10F
PRATT          CLEAR     57  43  58 E3        30.09S
$$

KSZ066>073-081>083-090>101-210700-
SOUTHEAST KANSAS

CITY           SKY/WX    TMP DP  RH WIND       PRES   REMARKS
CHANUTE        CLEAR     50  48  93 CALM      30.07S
6HR MIN TEMP:  50; 6HR MAX TEMP:  69;

COFFEYVILLE    CLEAR     54  53  97 CALM      30.07S
6HR MIN TEMP:  54; 6HR MAX TEMP:  68;

HUTCHINSON     CLEAR     48  43  82 CALM      30.07F
6HR MIN TEMP:  47; 6HR MAX TEMP:  65;

MEDICINE LODGE   N/A     56  48  74 CALM      30.07S
NEWTON         CLEAR     55  41  58 SE6       30.09F
PARSONS        CLEAR     50  49  96 CALM      30.08S
6HR MIN TEMP:  50; 6HR MAX TEMP:  63;

WICHITA INTL   CLEAR     54  47  77 CALM      30.07S
6HR MIN TEMP:  54; 6HR MAX TEMP:  74;

WICHITA JABRA  CLEAR     54  45  71 CALM      30.07S
6HR MIN TEMP:  54; 6HR MAX TEMP:  71;

WICHITA MCCONL CLEAR     58  47  67 E5        30.07F
WINFIELD       CLEAR     56  53  90 E5        30.07F
6HR MIN TEMP:  55; 6HR MAX TEMP:  72;

$$

KSZ007>012-019>026-033>040-048>060-102>105-210700-
NORTHEAST KANSAS

CITY           SKY/WX    TMP DP  RH WIND       PRES   REMARKS
CONCORDIA      CLEAR     53  42  66 CALM      30.07S
6HR MIN TEMP:  52; 6HR MAX TEMP:  65;

EMPORIA        CLEAR     50  45  83 NW3       30.07S
6HR MIN TEMP:  50; 6HR MAX TEMP:  68;

LAWRENCE       CLEAR     41  39  93 CALM      30.07F
6HR MIN TEMP:  41; 6HR MAX TEMP:  62;

MANHATTAN      CLEAR     42  41  96 CALM      30.07F
6HR MIN TEMP:  41; 6HR MAX TEMP:  67;

MARYSVILLE     CLEAR     45  41  87 CALM      30.07S
OLATHE IND     CLEAR     50  44  80 NE3       30.08S
6HR MIN TEMP:  48; 6HR MAX TEMP:  68;

OLATHE EXE     CLEAR     53  45  74 CALM      30.07S
6HR MIN TEMP:  51; 6HR MAX TEMP:  67;

SALINA         CLEAR     50  46  86 S3        30.07S
6HR MIN TEMP:  49; 6HR MAX TEMP:  72;

TOPEKA BILLARD FOG       45  44  97 CALM      30.08S VSB 1/2
6HR MIN TEMP:  46; 6HR MAX TEMP:  65;

TOPEKA FORBES  CLEAR     45  42  89 CALM      30.07S
6HR MIN TEMP:  44; 6HR MAX TEMP:  64;

$$


USA.gov is the U.S. government's official web portal to all federal, state and local government web resources and services.